CZ-6A DEB

Satellite information

Favourite Embed

Satellite Type and Status

DEBRISIN ORBIT

Key statistics

Satellite CZ-6A DEB at a glance.

Uptime

495

Days in orbit

Revolutions

≈ 14.2

Per day

Orbit

LEO

Low Earth Orbit

Inclination

89.0

Latest

Satellite identification and parameters

Extended collection of information and parameters for CZ-6A DEB.

Object identification

Identified? True

Debris? True

Object name: CZ-6A DEB

International designator: 2024-140BL

Object number (NORAD): 60659

Object ID (CCSDS): 60659

Country: PEOPLES REPUBLIC OF CHINA (PRC)

Current information (Y/N): Y

RCS size: MEDIUM

Orbital parameters

Period: 101.341 minutes

Inclination: 89.007 deg

SMA: 7200.287 km

Apoapsis: 855.193 km

Periapsis: 789.111 km

RAAN: 296.1393 deg

Eccentricy: 0.00458885

Argument of periapsis: 67.3049 deg

Mean anomaly: 293.2983 deg

Mean motion: 14.20947547 rev/day

Mean motion (dot): 0.00001356 rev/day2

B* drag term: 0.00061330587 1/REarth

Two-line elements (TLE)

Creation date: Dec. 12, 2025, 10:14 a.m.

Reference frame: TEME

Reference center: EARTH

Epoch: Dec. 12, 2025, 6:23 a.m. UTC

TLE line 0: 0 CZ-6A DEB

TLE line 1: 1 60659U 24140BL 25346.26623588 .00001356 00000-0 61331-3 0 9999

TLE line 2: 2 60659 89.0070 296.1393 0045889 67.3049 293.2983 14.20947547 69619

Live tracking on map

Real-time ground track for satellite CZ-6A DEB.

In-orbit conjunctions

A list of the most updated potential collisions computed for object CZ-6A DEB.

Target Orbit TCA Probability of collision Miss distance Type
FENGYUN 1C DEB SSO 2025-07-18 16:27:51 0.0002060076 258.0 (m) DEBRIS
FENGYUN 1C DEB SSO 2025-04-18 00:44:36 0.0003707867 28.0 (m) DEBRIS
FENGYUN 1C DEB SSO 2025-03-02 20:40:23 0.0001077158 344.0 (m) DEBRIS
THORAD AGENA D DEB SSO 2025-02-26 23:34:30 0.001240158 254.0 (m) DEBRIS
FENGYUN 1C DEB SSO 2025-02-01 12:05:36 0.0001714298 780.0 (m) DEBRIS

Associated space launch

18 Low Earth Orbit communication satellites with Ku, Q and V band payloads for the G60 constellation operated by Shanghai Spacecom Satellite Technology (SSST) with funding backed by the Shanghai local government. Initial constellation will consist of 1296 satellites by 2027 with long term plans to expand it to 12000 satellites.

CZ-6A DEB was lifted into orbit during the mission ‘Long March 6A | G60 Polar Group 01’, on board a Long March 6A space rocket.

The launch took place on Aug. 6, 2024, 6:42 a.m. from Launch Complex 9A.

For more information about the launch, click the button.

Launch to space Long March 6A | G60 Polar Group 01
Long March 6A | G60 Polar Group 01

Agency: N/A

Status: Launch Successful

Launch date: Aug. 6, 2024, 6:42 a.m. UTC

Rocket: Long March 6A

Launch pad: Launch Complex 9A

Location: Taiyuan Satellite Launch Center, People's Republic of China

...

Latest news about this satellite

News about space launch
Brightness of first Chinese broadband constellation satellites alarms astronomers

The first satellites of a Chinese broadband constellation are significantly brighter than those of Western systems, posing a new challenge for astronomers.

News about space launch
Chinese rocket stage breaks up into cloud of more than 700 pieces of space debris

HELSINKI — A Chinese Long March 6A rocket’s upper stage has fragmented into a cloud of over 700 pieces of space debris, adding to concerns about long-term orbital safety. China […]

News about space launch
China's Thousand Sails Megaconstellation Kicks Off with Dangerous Debris Field

China's Thousand Sails Megaconstellation Kicks Off with Dangerous Debris Field


Newsletter sign-up

Weekly statistics, charts and insights to help you stay on top of the space industry.